IRIDIUM 56 [-]

Last updated on Fri Oct 12 2018 00:08:12 GMT+0000 (Coordinated Universal Time)

1 25170U 98010B 18284.38011863 .17267319 -95414-6 34463-3 0 9995 2 25170 86.3769 145.8182 0033126 357.4376 2.7592 16.43394840 81225

Satellite not in orbit